STARLINK-34582 (64781 NORAD) Tracking and Keplerian Element Data

This shows tracking and keplerian element data for the satellite.

Feedback or suggestion? Click here.




ElementValue
Catalog64781
NameSTARLINK-34582
Epoch Orbit2650
Epoch Day354.1298587
Epoch Year2025
RAAN252.092
Inclination53.1587
Eccentricity6.59E-05
Argument of Perigee83.7595
Mean Anonmoly276.348
Mean Motion15.30232987
Decay Rate0.0002212
L11 64781U 25147AC 25354.12985870 .00022120 00000+0 75598-3 0 9997
L22 64781 53.1587 252.0920 0000659 83.7595 276.3480 15.30232987 26507



Live tracking and technical data element details for STARLINK-34582 (NORAD 64781). STARLINK-34582 can be tracked NOW for your location showing map with azimuth and elevation plus other details from your city location.







IsCatalogInMostPopularTable: catalog: 64781, numindb: 3
Update: records affected: 1



GetName: 64781 STARLINK-34582

Hit Count: updated at: Sun, 08 Feb 2026 09:06:26 GMT